Location: Ferintosh
(52.7647°N, 112.9692°W)
Time: 14:19:35
(UTC+00:00)

Transit 2A - Pass Details

Date: 24 May 2024
Orbit: 593 x 959 km, 66.7° (Epoch: 14 June)

Event Time Altitude Azimuth Distance (km) Brightness Sun altitude
Rises 08:44:33 0° 275° (W) 3,080 9.0 -14.5°
Reaches altitude 10° 08:47:16 10° 291° (WNW) 2,228 8.4 -14.4°
Maximum altitude 08:51:17 23° 343° (NNW) 1,620 8.3 -14.2°
Drops below altitude 10° 08:55:37 10° 34° (NE) 2,429 9.9 -14.0°
Sets 08:58:44 0° 49° (NE) 3,435 10.6 -13.8°
